SMOG-1

Last updated on Sun Jul 28 2024 00:03:34 GMT+0000 (Coordinated Universal Time)

1 47964U 21022AJ 24209.42839774 .06058814 25082-5 18456-2 0 9998 2 47964 97.4302 124.3639 0010937 202.0180 158.0643 16.26713361184600
UTC large
Height (km)
Speed (km/s)
/
Latitude / Longitude
Inclination (degrees)
Orbital Period (minutes)
Azimuth
Elevation
Range (km)
Doppler Factor

Next 0 passes for location: London (51.5072 / 0.1276)

Sorry there are no passes over London.